Вернуться в каталог

DELTA 1 DEB

АктивенSSO
NORAD 10832·DEBRIS·🇺🇸 United States

Запущен Jul 29, 1976 с Vandenberg Space Force Base

Loading…

Ближайшие Пролёты (ближайшие 24 часа)

TLE

СвежийSource: Space-Track

Эпоха: Sep 13, 2026, 09:01 UTC

1 10832U 76077CC  26256.37596316 -.00000022  00000-0  19804-3 0  9992
2 10832 102.2776 179.3777 0120979  30.5015  91.5235 12.20123706232426

Отслеживайте DELTA 1 DEB в реальном времени с AllMySat

Download on the App Store